Temp
9 9 8 8 8 7 7 7 6 6 5 5 5 5 5 5 4 4 5 4 4 4 4 4 4 4 4 4 3 3 3 3 3 3 3 3 3 3 4 3 3 3 0 -3 -2 -1 -2 -1 -1 -2 -2 -1 -0 0 1 1 2 2 2 2 3 3 3
8 8 8 7 7 7 6 6 6 5 5 5 5 5 4 4 4 4 4 4 4 4 3 3 3 3 4 3 3 2 2 2 2 2 2 2 2 2 3 3 3 2 -1 -4 -4 -3 -3 -3 -3 -3 -3 -2 -1 -1 -0 0 1 1 1 1 2 2 2
8 7 7 7 6 6 6 6 5 5 5 4 4 4 4 4 3 3 3 3 3 3 3 3 3 3 3 2 2 2 2 2 1 1 1 2 2 2 2 3 3 2 -0 -4 -5 -4 -4 -4 -4 -4 -4 -3 -2 -1 -1 -1 -0 -0 -0 -0 0 1 1
7 7 7 6 6 6 6 5 5 5 4 4 4 4 3 3 3 3 3 3 3 2 2 2 2 2 2 1 1 2 2 1 1 1 1 1 1 1 1 2 2 2 1 -3 -5 -5 -5 -5 -5 -5 -4 -4 -4 -3 -2 -2 -1 -1 -1 -1 -1 0 0
7 6 6 6 6 6 5 5 5 4 4 4 3 3 3 3 3 3 3 3 2 2 2 1 1 1 1 1 0 1 1 1 1 0 0 0 0 1 1 1 1 1 1 -1 -4 -6 -6 -6 -6 -6 -6 -5 -4 -4 -4 -3 -3 -2 -2 -2 -2 -1 -1
6 6 6 6 6 5 5 5 4 4 4 3 3 3 3 3 2 2 2 2 2 1 1 1 1 1 0 0 -0 -0 0 0 0 -0 -0 -0 -0 0 0 0 0 0 0 -1 -3 -5 -6 -7 -7 -7 -7 -6 -5 -4 -5 -5 -5 -4 -4 -3 -3 -2 -2
5 5 5 5 5 5 4 4 4 3 3 3 3 3 3 2 2 2 1 1 1 1 0 0 0 -0 -0 -0 -0 -0 -0 -1 -1 -1 -1 -1 -1 -1 -1 -0 -0 -1 -1 -2 -4 -6 -7 -7 -7 -7 -8 -8 -6 -6 -5 -5 -6 -6 -6 -5 -4 -3 -3
5 5 5 4 4 4 4 3 3 3 3 2 2 2 2 2 1 1 1 0 0 -0 -0 -0 -0 -0 -0 -1 -1 -1 -1 -1 -1 -2 -1 -1 -1 -1 -1 -1 -1 -2 -3 -3 -5 -6 -7 -8 -8 -8 -8 -8 -8 -7 -7 -6 -6 -6 -7 -6 -6 -5 -4
4 4 4 4 3 3 3 3 3 3 2 2 2 2 2 1 1 0 -0 -0 -1 -1 -1 -1 -1 -1 -1 -1 -1 -1 -1 -2 -2 -2 -2 -2 -2 -1 -1 -2 -2 -3 -4 -5 -6 -7 -8 -8 -9 -9 -9 -9 -9 -8 -7 -7 -6 -6 -7 -7 -7 -7 -6
3 3 3 3 3 2 2 2 2 2 2 2 1 1 1 1 0 -0 -1 -1 -1 -2 -2 -1 -1 -1 -1 -1 -1 -1 -1 -1 -2 -2 -3 -2 -2 -2 -2 -2 -3 -3 -4 -5 -6 -7 -8 -8 -9 -9 -9 -9 -8 -8 -7 -7 -7 -7 -8 -8 -8 -8 -8
2 2 2 2 2 2 2 2 2 2 2 1 1 1 0 -0 -0 -1 -1 -1 -1 -2 -2 -2 -2 -2 -2 -2 -2 -2 -2 -2 -2 -2 -3 -3 -3 -2 -2 -2 -2 -3 -4 -5 -6 -7 -7 -8 -8 -9 -9 -8 -8 -8 -8 -7 -7 -8 -8 -9 -9 -8 -8
1 1 1 1 1 1 1 2 2 2 1 1 1 0 0 -0 -1 -1 -1 -1 -1 -2 -3 -3 -3 -3 -3 -3 -3 -2 -2 -2 -2 -2 -3 -3 -3 -3 -3 -2 -2 -3 -3 -4 -5 -6 -7 -7 -7 -8 -9 -8 -8 -8 -8 -8 -8 -8 -8 -8 -8 -8 -8
0 0 1 1 1 1 1 1 1 1 0 0 0 0 0 -0 -1 -1 -1 -2 -2 -3 -3 -4 -4 -4 -4 -3 -3 -3 -3 -3 -3 -3 -3 -4 -4 -4 -3 -3 -3 -3 -3 -3 -4 -5 -6 -6 -6 -7 -7 -7 -7 -8 -8 -8 -8 -8 -8 -8 -8 -8 -8
-1 -1 -0 -0 -0 -0 -0 -0 -0 -0 -0 0 0 0 -0 -1 -2 -2 -3 -3 -3 -4 -4 -4 -4 -4 -4 -4 -4 -4 -4 -4 -4 -4 -4 -4 -4 -4 -4 -4 -4 -3 -3 -3 -3 -4 -4 -4 -4 -4 -4 -5 -7 -7 -7 -7 -8 -8 -8 -8 -8 -8 -8
-1 -1 -1 -1 -1 -1 -1 -1 -1 -1 -1 -1 -1 -1 -2 -2 -3 -3 -3 -4 -4 -4 -4 -5 -5 -5 -5 -5 -5 -4 -5 -5 -5 -5 -5 -5 -5 -5 -5 -4 -4 -4 -4 -4 -4 -4 -3 -3 -3 -3 -3 -4 -6 -6 -6 -7 -7 -8 -8 -8 -8 -8 -8
-2 -2 -2 -2 -2 -2 -2 -2 -2 -1 -2 -2 -2 -2 -3 -3 -3 -4 -4 -4 -5 -5 -5 -5 -5 -5 -5 -5 -5 -5 -5 -5 -6 -6 -5 -5 -5 -5 -5 -5 -5 -5 -5 -5 -5 -5 -4 -4 -4 -4 -4 -4 -5 -7 -7 -8 -8 -8 -8 -9 -9 -9 -10
-3 -3 -3 -3 -3 -3 -3 -3 -2 -3 -3 -3 -3 -3 -4 -4 -4 -5 -5 -5 -5 -5 -5 -5 -5 -5 -6 -6 -6 -6 -6 -6 -6 -6 -5 -5 -6 -6 -6 -6 -5 -5 -5 -5 -5 -5 -5 -5 -5 -5 -5 -6 -6 -7 -8 -8 -9 -9 -9 -9 -10 -11 -11
-3 -3 -3 -3 -3 -4 -4 -4 -4 -4 -4 -4 -4 -4 -4 -5 -5 -5 -5 -6 -6 -6 -6 -6 -6 -6 -6 -6 -6 -6 -6 -6 -6 -6 -6 -5 -6 -6 -6 -6 -6 -6 -6 -6 -6 -6 -6 -6 -6 -6 -7 -7 -8 -8 -8 -8 -8 -9 -9 -9 -9 -10 -11
-4 -4 -4 -4 -4 -4 -4 -5 -5 -4 -4 -4 -5 -5 -5 -5 -6 -6 -6 -6 -6 -6 -6 -7 -7 -7 -7 -7 -7 -7 -7 -7 -7 -7 -6 -5 -6 -6 -7 -7 -7 -7 -7 -7 -7 -7 -7 -7 -8 -8 -8 -9 -9 -9 -9 -9 -8 -8 -9 -9 -9 -9 -10
-4 -4 -5 -5 -5 -5 -5 -5 -5 -5 -5 -5 -5 -5 -6 -6 -6 -6 -6 -7 -7 -7 -7 -7 -7 -7 -7 -7 -8 -8 -7 -7 -7 -7 -6 -6 -5 -6 -6 -7 -8 -8 -8 -8 -8 -8 -8 -9 -9 -9 -9 -10 -10 -10 -10 -9 -9 -9 -9 -9 -9 -9 -9
-5 -5 -5 -6 -6 -6 -6 -6 -6 -6 -6 -6 -6 -6 -6 -7 -6 -6 -7 -7 -7 -7 -7 -8 -8 -8 -8 -8 -8 -8 -8 -8 -7 -7 -7 -6 -6 -6 -6 -7 -8 -9 -9 -9 -9 -9 -9 -10 -10 -10 -10 -11 -11 -11 -10 -10 -9 -9 -9 -9 -9 -9 -9
-6 -6 -6 -6 -6 -6 -7 -7 -7 -7 -7 -7 -7 -7 -7 -7 -7 -7 -7 -7 -8 -8 -8 -8 -8 -8 -8 -8 -8 -9 -8 -8 -8 -8 -7 -7 -7 -7 -7 -7 -9 -9 -9 -10 -10 -10 -11 -11 -11 -12 -12 -12 -12 -11 -11 -10 -10 -10 -10 -9 -9 -9 -9
-6 -6 -7 -7 -7 -7 -7 -7 -7 -7 -7 -7 -7 -8 -8 -8 -8 -8 -7 -8 -8 -8 -8 -8 -8 -8 -8 -8 -9 -9 -9 -9 -8 -8 -8 -8 -8 -8 -8 -8 -9 -10 -10 -10 -11 -11 -12 -12 -12 -12 -12 -12 -12 -12 -11 -11 -11 -10 -10 -10 -10 -10 -9
-7 -7 -7 -7 -7 -7 -8 -8 -8 -8 -8 -8 -8 -8 -8 -9 -8 -8 -8 -8 -8 -8 -8 -8 -8 -8 -8 -9 -9 -9 -9 -9 -9 -9 -9 -9 -9 -9 -9 -9 -10 -11 -11 -11 -12 -12 -13 -13 -13 -13 -12 -12 -12 -12 -12 -11 -11 -11 -11 -11 -11 -10 -10
-8 -8 -8 -8 -8 -8 -8 -8 -8 -8 -9 -9 -9 -9 -9 -9 -9 -9 -8 -8 -8 -8 -8 -9 -9 -9 -9 -9 -9 -10 -10 -10 -10 -10 -10 -10 -10 -10 -10 -10 -11 -11 -12 -12 -12 -13 -13 -13 -13 -12 -12 -12 -12 -12 -12 -12 -12 -12 -12 -11 -11 -11 -11
-8 -8 -8 -9 -9 -9 -9 -9 -9 -9 -9 -9 -10 -10 -10 -10 -10 -9 -9 -9 -8 -8 -9 -9 -9 -9 -9 -9 -10 -10 -10 -10 -10 -10 -11 -11 -11 -11 -11 -11 -11 -12 -12 -12 -12 -13 -13 -13 -13 -13 -13 -13 -12 -12 -12 -12 -12 -12 -12 -12 -12 -12 -12
-9 -9 -9 -9 -9 -9 -9 -9 -9 -9 -10 -10 -10 -10 -10 -11 -10 -10 -10 -9 -9 -9 -9 -9 -9 -9 -10 -10 -10 -11 -11 -11 -11 -11 -11 -12 -12 -11 -11 -11 -11 -12 -12 -12 -12 -13 -13 -13 -13 -13 -13 -13 -13 -13 -12 -12 -12 -12 -12 -12 -13 -13 -13
-10 -10 -10 -10 -10 -10 -10 -10 -10 -10 -10 -11 -11 -11 -11 -11 -11 -10 -10 -10 -9 -9 -10 -10 -10 -10 -10 -11 -11 -11 -11 -12 -12 -12 -12 -12 -12 -12 -12 -12 -12 -12 -12 -12 -12 -13 -13 -13 -13 -13 -13 -13 -13 -13 -13 -13 -13 -13 -13 -13 -13 -14 -14
-11 -11 -11 -11 -11 -11 -11 -11 -11 -11 -11 -11 -11 -12 -12 -11 -11 -11 -11 -10 -10 -10 -10 -10 -11 -11 -11 -12 -12 -12 -13 -13 -13 -13 -13 -13 -13 -13 -12 -12 -12 -12 -12 -12 -12 -13 -13 -13 -13 -14 -14 -14 -14 -14 -14 -14 -14 -14 -14 -14 -14 -14 -14
-12 -12 -12 -12 -12 -12 -12 -12 -12 -12 -12 -12 -12 -12 -12 -12 -12 -12 -11 -11 -10 -10 -11 -11 -11 -12 -12 -12 -13 -13 -13 -14 -14 -14 -14 -14 -13 -13 -13 -13 -13 -13 -13 -13 -13 -13 -13 -13 -14 -14 -14 -14 -15 -15 -15 -15 -15 -15 -15 -15 -15 -15 -15
-12 -12 -12 -13 -13 -13 -12 -12 -12 -12 -12 -12 -12 -12 -12 -12 -12 -12 -12 -12 -11 -11 -11 -12 -12 -12 -13 -13 -13 -13 -13 -14 -14 -14 -14 -14 -14 -14 -13 -13 -13 -13 -13 -13 -13 -13 -13 -13 -14 -14 -14 -15 -15 -15 -16 -16 -16 -16 -16 -16 -16 -16 -16
-12 -12 -12 -13 -13 -13 -13 -13 -13 -13 -12 -12 -12 -12 -12 -13 -13 -13 -13 -12 -12 -12 -12 -12 -12 -13 -13 -13 -13 -13 -13 -14 -14 -14 -14 -14 -14 -14 -14 -14 -14 -14 -13 -13 -13 -14 -14 -14 -14 -15 -15 -15 -16 -16 -16 -16 -16 -16 -16 -16 -16 -16 -16
-12 -12 -12 -13 -13 -13 -13 -13 -13 -13 -13 -12 -12 -13 -13 -13 -13 -13 -13 -13 -12 -12 -13 -13 -13 -13 -13 -13 -13 -13 -14 -14 -14 -14 -14 -15 -15 -15 -15 -15 -14 -14 -14 -14 -14 -14 -14 -14 -15 -15 -15 -16 -16 -16 -16 -16 -17 -17 -17 -17 -17 -17 -17
-12 -12 -12 -13 -13 -13 -13 -13 -13 -13 -13 -13 -13 -13 -13 -13 -13 -13 -13 -13 -13 -13 -13 -13 -13 -13 -13 -14 -14 -14 -14 -14 -14 -14 -15 -15 -15 -15 -15 -15 -15 -15 -15 -15 -15 -15 -15 -15 -15 -15 -15 -16 -16 -16 -16 -16 -17 -17 -17 -17 -17 -17 -17
-12 -12 -12 -13 -13 -13 -13 -13 -13 -13 -13 -14 -14 -14 -14 -14 -14 -14 -14 -14 -14 -14 -14 -14 -14 -14 -14 -14 -14 -14 -14 -14 -14 -14 -15 -15 -15 -15 -15 -15 -15 -15 -15 -15 -15 -15 -15 -15 -15 -15 -15 -15 -16 -16 -17 -17 -17 -17 -17 -17 -17 -17 -17
-12 -13 -13 -13 -14 -14 -14 -14 -14 -14 -14 -14 -14 -14 -14 -14 -14 -14 -14 -14 -14 -14 -14 -14 -14 -14 -14 -14 -14 -14 -14 -14 -14 -14 -15 -15 -15 -15 -15 -15 -15 -15 -15 -15 -15 -15 -15 -15 -15 -15 -15 -16 -16 -16 -16 -17 -17 -17 -17 -17 -17 -17 -17
Height
763 764 764 764 764 764 765 765 766 767 768 769 770 770 771 771 772 772 773 774 775 775 776 776 776 776 777 778 778 779 780 780 781 782 782 783 784 784 786 787 788 788 790 793 794 795 796 798 800 802 805 806 807 808 810 811 813 814 815 816 816 818 820
762 763 763 763 763 763 763 763 764 765 766 766 767 768 769 769 769 770 771 772 772 773 773 774 774 774 775 776 776 776 777 778 778 779 780 780 781 781 782 784 785 785 787 790 792 793 794 796 798 800 802 804 805 806 808 809 811 812 814 815 816 817 819
759 760 760 761 761 761 761 762 762 763 763 764 765 766 766 767 767 768 769 769 770 770 771 771 771 772 772 773 773 773 774 775 775 776 777 777 778 779 779 781 782 783 784 786 789 791 792 794 796 799 801 803 804 805 806 808 810 811 813 814 815 817 818
757 757 758 758 758 759 759 759 760 760 761 762 763 763 764 765 765 766 766 767 767 768 769 769 769 769 770 771 770 771 772 772 773 773 774 774 775 776 777 778 779 780 780 782 786 789 790 792 794 797 799 800 802 804 805 806 808 810 812 813 815 816 817
754 755 755 755 756 756 756 757 757 758 758 759 760 761 761 762 762 763 763 764 765 765 766 766 766 767 768 768 768 768 769 769 770 771 771 772 773 774 775 776 777 777 778 779 781 785 789 791 793 795 797 798 800 802 804 805 807 809 811 812 814 816 817
752 752 753 753 754 754 754 755 755 755 756 757 757 758 759 759 760 760 761 761 762 762 763 763 764 765 765 766 766 766 767 767 768 768 769 770 771 772 773 773 774 775 776 777 779 782 785 789 790 792 795 796 798 799 801 803 805 808 810 811 813 815 817
751 751 752 752 752 753 753 753 753 754 754 755 756 756 757 757 757 758 758 759 759 760 760 761 762 762 763 763 763 764 765 765 765 765 766 766 768 770 771 771 772 773 775 776 778 781 783 786 788 791 792 794 797 799 801 801 803 806 808 810 811 813 815
749 750 750 751 751 752 752 752 752 753 753 754 754 755 755 755 755 755 756 757 757 758 758 759 759 760 760 761 761 762 763 764 764 764 763 764 765 767 768 769 770 772 774 775 777 780 782 784 787 789 791 793 795 797 798 799 800 802 805 807 810 812 813
748 748 749 749 749 750 750 750 751 751 752 752 752 753 753 753 754 754 755 755 756 756 757 757 757 757 758 758 758 759 760 761 762 763 762 762 763 764 765 766 768 769 771 773 775 778 780 783 784 786 787 788 789 790 792 796 799 801 803 806 808 810 811
746 746 747 747 747 748 748 748 748 749 749 750 750 751 751 751 751 752 753 753 754 754 754 755 755 755 755 755 756 756 756 758 759 760 761 762 762 763 763 763 765 766 768 770 772 774 776 778 780 781 781 782 784 787 790 793 796 799 801 804 807 808 810
744 744 744 745 745 745 745 745 746 746 747 747 748 748 748 749 749 749 750 751 751 751 752 752 753 752 753 753 753 754 754 755 756 757 758 759 760 762 762 761 762 763 765 766 768 770 772 773 775 776 778 780 783 786 789 791 793 796 798 800 803 805 806
741 742 742 742 742 743 742 743 744 744 744 745 745 746 746 746 747 747 747 748 748 749 749 750 751 750 751 751 751 752 752 753 753 754 755 756 757 759 760 760 760 760 761 763 765 767 769 769 771 773 775 777 780 782 786 789 791 793 794 796 798 800 801
739 739 740 740 740 740 740 741 742 742 742 743 743 744 744 744 744 744 745 745 745 746 747 748 749 749 749 749 749 750 750 750 751 752 752 753 755 756 757 758 758 758 759 760 761 763 764 766 768 770 771 772 775 779 783 786 788 790 792 794 796 797 799
737 737 738 738 738 739 739 740 740 740 741 741 741 741 741 741 742 742 743 743 743 744 745 745 746 746 747 747 747 748 748 749 749 750 751 751 752 754 755 755 756 757 758 759 759 760 762 763 765 766 767 770 772 775 778 780 783 786 788 792 794 796 799
736 736 736 737 737 737 737 738 739 739 739 739 739 739 739 739 740 740 740 740 741 741 742 743 744 744 745 745 745 745 746 747 748 749 749 750 751 752 752 753 754 755 756 757 758 759 761 762 764 765 767 769 771 773 775 778 780 783 786 790 793 795 798
735 735 736 736 736 736 736 737 737 737 737 737 737 737 737 737 737 737 738 738 738 739 740 740 741 742 742 742 743 743 744 745 746 747 748 749 749 750 751 752 753 754 755 756 757 759 760 762 763 765 766 768 770 772 775 778 781 783 786 789 792 794 796
735 735 735 735 735 735 735 735 736 736 736 736 736 735 735 735 735 735 735 736 736 737 737 738 739 739 739 740 740 741 742 743 744 745 746 747 748 749 750 750 751 752 754 756 757 758 760 761 763 764 766 767 769 771 773 775 779 781 783 786 789 792 794
734 734 734 734 734 734 734 734 734 734 734 734 734 734 733 733 733 733 733 733 734 734 735 735 736 736 737 737 738 739 740 741 742 743 744 745 746 747 749 749 750 751 753 754 756 757 759 760 762 763 764 766 768 770 771 773 775 778 781 784 787 790 793
733 733 733 733 733 733 733 733 732 732 732 732 732 732 732 731 731 731 731 731 732 732 732 733 733 734 735 735 736 737 738 739 740 741 742 743 744 746 747 748 749 750 752 753 755 756 757 759 760 762 763 765 767 769 771 773 774 776 779 782 785 788 791
733 733 732 733 732 732 732 731 731 731 731 730 731 730 730 730 729 728 729 729 730 730 730 731 731 731 732 733 734 735 736 737 738 739 741 742 743 744 745 747 748 750 751 752 754 755 756 758 759 761 763 765 767 769 771 773 775 777 778 781 784 786 788
732 732 732 732 731 730 730 730 730 729 729 729 729 729 728 728 727 727 727 727 728 728 728 729 729 729 730 731 731 732 733 734 736 738 739 741 742 742 744 745 747 749 750 752 753 755 756 757 759 761 762 764 766 768 770 772 774 776 778 780 783 785 786
731 731 731 731 730 730 729 728 728 728 727 727 727 727 727 726 726 726 726 726 726 727 727 727 727 728 728 729 729 730 731 732 733 735 737 739 740 741 743 744 746 748 750 752 753 754 756 757 758 760 762 764 766 768 770 772 773 775 777 780 782 784 785
731 731 730 730 730 729 728 728 727 727 726 726 726 725 725 725 725 725 725 724 725 725 725 726 726 726 727 727 727 728 729 730 732 733 735 736 738 740 742 743 745 747 749 750 752 753 755 756 758 759 761 763 765 767 769 771 773 775 777 779 782 784 785
732 731 730 730 730 729 728 727 726 726 725 725 724 724 723 723 723 723 723 723 723 723 724 724 725 725 726 726 726 727 728 729 730 732 733 735 736 738 740 742 744 746 748 750 751 752 754 756 757 759 760 762 763 765 768 770 772 774 776 779 781 783 785
732 731 730 730 729 728 728 727 726 726 725 724 723 723 722 722 721 721 721 721 721 722 722 723 723 724 724 725 725 725 726 727 729 730 732 734 735 736 738 740 743 745 747 749 750 752 753 755 757 758 760 761 763 765 767 769 771 773 776 778 780 782 784
732 731 730 730 729 728 727 726 726 725 724 724 723 722 721 720 720 719 720 720 720 720 721 721 722 722 723 724 724 725 726 726 727 729 731 733 734 735 737 739 741 743 745 747 749 751 753 754 756 758 759 761 763 764 766 768 770 772 774 776 779 781 783
732 732 731 730 729 728 727 726 726 725 724 723 722 721 720 720 719 718 718 718 718 719 719 720 720 721 722 723 723 724 725 726 727 728 729 731 733 735 736 738 740 742 745 746 748 750 752 754 755 757 759 760 762 764 765 767 769 771 773 775 777 779 781
733 733 732 731 730 729 727 727 726 725 724 723 722 721 720 719 718 718 717 717 717 717 718 718 719 720 721 722 723 724 725 726 727 728 729 731 732 734 736 738 740 742 744 746 748 750 751 753 755 756 758 760 761 763 765 766 768 770 771 773 775 777 779
734 733 732 731 730 729 728 727 726 725 724 723 722 721 720 719 718 717 717 717 717 717 717 717 718 719 720 721 722 724 725 726 727 729 730 731 732 734 736 738 739 741 742 744 746 748 750 752 753 755 757 759 760 762 763 765 767 768 770 772 773 774 776
734 734 732 731 730 729 728 727 726 725 724 723 721 720 719 718 717 716 716 716 716 716 716 717 717 718 719 720 721 722 724 725 726 728 730 731 732 733 735 736 738 740 741 742 744 746 748 750 752 754 756 758 759 761 762 764 766 767 768 770 771 772 774
734 734 733 731 730 728 727 726 725 724 723 721 720 719 718 717 716 715 715 715 715 715 716 716 717 718 718 719 720 721 722 724 724 726 727 729 731 732 733 734 736 738 740 741 743 745 747 749 751 753 755 757 758 760 761 763 765 766 768 769 770 771 773
735 734 733 731 730 728 727 725 724 722 721 720 719 718 717 716 715 715 715 715 715 715 715 716 716 717 718 719 720 720 721 722 723 724 725 726 728 730 731 733 735 736 738 740 742 744 746 748 750 752 754 756 758 759 761 762 763 765 766 768 769 770 771
735 734 733 732 730 728 726 725 723 722 720 719 718 718 716 716 715 714 714 715 715 716 716 716 716 717 717 718 719 719 721 722 722 724 725 726 727 729 731 733 734 736 738 740 741 743 744 746 748 750 753 755 757 758 760 761 762 763 765 766 767 768 769
735 734 733 732 731 729 727 725 723 721 720 719 718 718 717 716 715 715 715 715 716 716 716 716 717 717 718 718 719 720 721 721 722 724 725 726 728 729 731 732 734 736 737 739 740 742 743 745 747 749 751 753 755 757 758 759 760 761 763 763 764 765 766
736 735 733 732 731 729 727 726 724 722 720 719 719 718 718 717 716 716 716 716 716 716 716 717 717 717 718 718 719 720 721 721 722 723 724 726 727 729 730 732 733 735 736 738 739 741 742 744 746 747 749 751 752 754 755 757 758 759 760 761 762 763 764
736 735 734 732 731 730 728 726 725 723 722 721 720 720 719 718 717 717 717 716 716 717 716 716 717 717 717 718 718 719 720 721 721 722 723 725 726 727 729 730 732 733 735 737 738 740 741 743 744 746 747 749 750 751 753 754 755 757 758 759 760 761 762
Wind_Speed
26 25 24 23 22 22 22 22 22 21 21 22 22 22 21 21 20 20 20 19 20 20 20 21 21 22 22 21 21 22 22 22 23 23 23 24 25 27 28 26 21 11 5 9 15 21 23 24 27 27 25 26 26 26 26 26 26 25 25 27 28 28 27
24 23 22 22 22 21 21 22 21 21 21 21 21 20 20 20 20 20 19 19 20 20 20 20 21 22 21 21 20 21 21 21 22 21 22 24 24 26 28 28 25 16 9 10 14 20 23 24 26 26 26 26 27 27 27 26 26 25 25 26 27 28 28
22 21 21 21 21 21 21 21 21 21 21 21 20 20 20 20 20 20 20 20 21 20 20 20 21 22 21 20 20 21 21 21 21 21 21 23 24 25 26 27 27 21 14 14 16 20 24 24 24 25 25 26 27 27 27 27 26 25 25 25 26 28 29
22 22 21 21 21 21 21 21 21 21 21 21 20 20 19 19 20 20 21 21 21 20 20 21 21 21 20 20 20 20 20 21 22 22 22 22 23 24 25 25 27 25 21 18 18 19 23 25 24 23 25 27 26 26 26 27 26 25 24 24 25 27 29
22 22 22 22 22 21 21 20 20 20 20 20 19 19 19 19 19 20 20 20 20 20 20 20 21 20 19 18 19 20 20 20 21 22 22 22 21 22 23 23 24 25 24 23 22 21 21 23 23 23 24 27 28 27 25 25 25 25 24 24 24 25 27
21 22 22 22 21 21 21 20 20 20 20 19 19 18 18 18 19 19 19 19 19 19 19 19 19 19 18 18 19 19 19 19 20 20 20 21 21 21 22 22 22 23 23 23 24 23 22 23 24 24 24 26 29 29 28 26 24 23 23 24 24 24 24
21 21 21 21 21 20 20 20 20 20 19 19 19 19 18 18 19 19 19 19 19 19 18 18 18 18 18 19 19 19 19 19 19 19 19 20 20 20 21 21 21 21 21 21 22 22 22 24 24 23 23 25 27 27 27 28 25 22 22 22 23 24 24
21 21 20 20 20 19 19 19 19 20 20 19 19 19 19 19 19 19 18 18 19 19 18 18 18 18 18 18 18 18 18 19 19 19 19 19 19 20 20 20 20 20 20 21 21 20 21 22 22 22 22 24 25 25 25 29 29 26 25 24 23 23 23
20 20 20 20 19 19 19 19 20 20 20 19 19 19 19 18 18 18 18 18 18 18 19 18 18 18 18 18 17 17 17 18 18 19 19 19 19 20 21 21 21 21 21 21 20 19 20 20 19 22 24 25 29 30 28 30 28 25 25 25 22 22 22
20 20 20 20 19 19 19 20 20 20 20 19 18 18 18 17 17 17 17 17 17 18 19 19 19 19 18 18 17 17 17 17 18 18 19 19 19 21 23 23 23 23 23 23 23 23 23 20 18 24 29 30 31 30 28 29 28 25 24 23 19 17 20
19 20 20 20 20 20 21 20 20 20 20 19 18 18 18 17 17 16 17 17 18 19 19 19 19 19 18 18 17 17 17 17 17 17 18 19 19 20 23 25 25 25 25 25 24 23 25 23 21 26 30 29 28 27 27 30 30 26 25 24 19 14 16
19 19 20 21 21 21 21 21 21 21 20 19 18 17 17 17 17 17 17 18 18 18 19 18 19 19 18 17 17 17 16 17 17 17 17 18 18 20 24 26 26 26 26 26 25 23 25 25 24 26 29 30 30 29 27 27 27 26 27 26 22 17 15
18 19 20 21 21 21 22 21 21 21 20 19 18 17 17 17 18 18 18 18 18 18 18 18 18 19 18 18 17 16 16 17 17 16 16 17 18 21 23 24 25 26 26 28 28 27 28 28 27 28 31 34 34 31 29 27 26 27 27 24 21 18 17
17 18 19 20 20 21 21 20 20 20 20 19 18 17 17 17 17 17 18 18 18 17 18 18 18 18 18 18 17 16 16 16 16 16 16 17 19 20 22 23 23 24 24 25 27 28 28 29 29 28 31 34 34 33 32 32 30 28 27 23 19 17 16
16 18 18 19 20 20 20 20 20 19 19 18 17 16 16 16 17 18 18 18 18 18 18 18 18 18 18 18 17 17 16 16 16 16 17 19 20 20 20 20 21 21 22 22 24 26 27 27 27 27 27 30 32 33 32 32 30 28 26 23 19 16 15
14 15 16 17 18 18 19 19 19 19 19 17 16 16 15 15 16 18 18 18 18 18 18 18 18 18 19 19 18 18 17 16 17 18 19 20 21 20 19 19 19 19 19 20 21 23 23 22 23 23 23 25 28 30 30 27 25 24 25 23 19 15 16
13 14 14 15 16 17 17 17 17 18 17 17 16 15 14 15 16 17 18 18 18 18 18 18 19 19 19 19 19 18 17 17 19 20 21 22 21 19 18 17 17 17 17 17 18 18 19 19 18 18 19 21 24 28 30 28 25 25 26 24 16 12 14
13 13 13 14 14 15 15 16 16 16 16 16 15 14 14 15 16 17 18 17 17 17 18 18 19 19 19 19 19 19 18 18 21 23 23 23 21 19 18 17 16 16 16 16 15 15 15 15 14 15 16 19 23 26 28 29 29 29 28 23 16 12 13
11 11 11 11 12 13 13 14 14 15 15 15 14 14 14 15 16 17 17 17 17 17 17 17 18 18 18 19 19 19 18 20 23 25 25 24 22 21 19 17 16 16 15 15 15 15 15 14 15 16 17 19 22 24 26 27 28 29 29 23 18 17 14
9 8 9 10 11 12 12 13 13 13 14 15 14 14 14 15 17 18 18 17 17 17 17 17 17 17 18 18 19 20 19 20 24 26 25 25 24 22 21 19 17 16 16 16 17 17 17 18 18 18 19 21 23 24 25 24 23 25 27 24 20 20 16
9 9 10 10 10 11 11 11 12 12 13 14 14 14 14 16 19 19 18 17 17 17 17 17 17 17 17 17 19 20 19 21 25 27 25 25 24 22 22 20 19 18 17 18 18 19 19 20 20 21 21 23 24 23 23 21 20 22 23 21 20 20 18
10 9 9 9 8 9 11 11 12 12 12 12 13 14 14 15 18 19 19 18 17 18 18 18 17 17 16 17 18 19 20 22 25 26 25 24 23 21 20 20 20 20 19 20 20 21 21 21 21 23 23 24 24 23 21 20 19 21 20 19 19 19 17
9 8 8 8 8 9 10 11 12 12 12 12 12 12 13 14 16 18 19 19 19 19 18 18 17 17 16 16 17 19 21 22 24 25 25 23 22 20 19 20 21 21 22 22 21 21 21 20 21 23 24 24 24 23 21 20 19 19 19 17 17 17 16
10 9 9 9 10 10 10 11 12 13 13 13 13 13 12 13 14 16 18 20 20 19 18 16 16 16 16 15 16 19 21 22 23 24 24 23 22 20 20 22 23 23 22 22 21 21 20 20 20 22 23 23 23 22 21 20 18 18 18 17 16 15 14
10 10 9 10 10 11 11 11 11 12 13 14 14 13 13 13 13 14 17 20 21 20 18 16 14 14 14 15 16 18 19 21 21 22 22 22 21 20 22 23 24 24 23 21 20 20 20 19 19 20 21 21 21 20 19 19 18 17 17 16 15 14 14
10 10 9 9 10 10 11 11 11 13 13 13 13 14 14 15 14 13 13 17 20 19 17 15 14 13 13 14 15 17 19 20 20 20 21 21 21 21 23 24 24 24 23 21 20 19 19 19 18 18 18 18 18 17 17 18 18 16 16 15 15 14 14
11 10 10 10 10 11 11 11 11 12 11 11 13 15 16 15 14 13 12 14 17 18 16 14 13 12 12 12 14 16 18 20 20 19 20 20 21 21 22 23 23 23 22 21 20 19 19 19 19 18 17 17 16 16 16 16 16 15 15 14 14 13 13
11 11 11 12 13 13 12 11 11 11 12 14 16 17 17 16 14 13 13 13 14 16 15 13 11 9 10 12 14 15 16 17 18 19 20 21 21 20 21 21 21 21 21 20 20 20 20 20 20 19 18 18 16 15 15 14 14 14 14 14 13 13 12
10 11 12 12 12 13 13 12 12 13 14 16 16 15 15 15 14 13 13 13 13 14 12 11 10 11 13 14 15 16 16 16 17 18 19 20 20 20 21 22 22 21 21 22 22 22 22 22 22 20 19 18 17 16 15 15 14 14 14 13 13 13 13
10 11 11 11 10 11 11 11 13 14 14 14 14 13 13 12 12 11 11 11 12 12 11 11 12 13 15 16 17 17 17 18 19 19 20 20 21 21 22 23 23 22 22 23 23 23 23 23 22 21 20 19 18 17 16 15 15 15 15 15 15 14 14
11 12 13 12 11 12 11 11 12 13 13 13 14 12 10 10 10 9 9 9 10 11 11 11 12 13 15 16 17 17 19 20 21 22 22 22 21 22 24 24 24 23 23 23 23 22 22 22 21 20 20 19 18 17 16 15 14 14 15 15 14 13 12
12 14 16 15 14 14 13 12 12 12 11 11 11 9 8 7 7 8 8 7 9 10 10 11 12 13 14 16 16 17 19 21 21 22 23 23 22 22 23 24 24 23 23 23 22 22 22 21 20 19 19 18 18 17 16 15 15 15 15 15 14 13 12
12 14 17 17 17 16 14 13 12 11 10 9 8 6 7 7 6 7 6 4 6 5 6 9 11 12 14 16 17 17 17 18 19 19 20 21 21 21 21 22 22 22 22 23 22 22 22 21 20 19 18 17 17 17 16 16 16 16 15 15 15 15 15
12 14 16 16 17 18 16 15 14 11 9 8 6 6 7 8 6 6 3 2 3 2 2 5 7 8 10 12 13 13 13 14 16 16 16 18 18 18 18 20 20 20 21 22 21 21 20 20 19 19 18 18 18 18 17 17 17 17 17 18 17 17 16
13 14 14 14 16 18 18 18 17 14 10 8 7 8 8 7 6 5 3 1 2 2 3 4 5 6 7 9 10 10 11 13 14 15 16 17 17 17 18 20 20 20 21 21 21 21 20 20 19 19 18 18 19 19 19 19 18 18 18 18 18 18 16
13 13 12 12 14 16 16 17 17 16 12 9 8 8 8 7 7 6 4 2 2 2 2 2 4 6 7 8 9 10 12 13 15 16 16 17 18 19 20 20 21 22 21 21 21 21 20 20 19 19 19 19 19 20 20 20 19 19 19 19 18 18 17
Wind_Direction
241 241 240 239 238 235 235 237 240 244 245 245 246 246 245 245 246 249 252 255 256 255 257 258 259 259 258 257 256 254 254 252 249 246 241 238 234 230 229 225 222 218 166 171 196 197 197 201 201 200 200 196 189 184 182 181 178 176 173 172 170 169 168
243 243 243 241 240 237 236 238 240 243 245 245 246 245 242 241 242 246 250 252 254 254 256 258 257 260 260 258 255 253 252 252 250 248 243 238 235 232 230 228 224 216 180 163 179 186 188 193 196 196 197 197 192 185 183 181 178 176 175 172 171 170 167
243 243 242 241 240 239 238 238 239 242 244 245 245 244 242 241 242 247 250 252 255 255 255 256 257 259 260 257 254 252 250 249 248 246 244 240 236 233 231 229 225 217 192 167 171 182 184 185 191 194 194 194 193 187 183 182 181 179 178 174 171 171 168
243 243 241 240 240 239 238 239 239 241 243 244 245 244 243 244 246 250 253 255 257 257 256 256 257 260 260 257 254 253 251 249 246 244 243 241 238 235 233 230 225 220 205 181 171 181 186 184 185 190 192 190 188 186 185 184 183 182 181 177 173 172 170
242 241 240 240 240 240 239 240 240 240 242 244 244 245 245 248 250 253 256 258 258 258 257 257 258 260 260 258 256 255 253 250 246 244 242 241 240 236 234 230 224 220 213 195 177 173 181 185 183 184 190 190 187 184 181 182 184 184 184 182 179 178 176
243 242 242 242 242 242 240 239 240 241 242 242 242 245 247 249 251 253 256 258 259 258 257 258 260 261 259 258 257 257 256 252 248 244 242 241 240 236 231 226 220 215 210 199 183 173 173 180 183 182 184 189 191 187 182 180 180 183 186 188 187 186 184
246 245 245 245 244 243 241 239 240 240 241 242 244 246 247 249 250 253 255 257 258 259 259 259 260 261 260 259 259 259 258 255 250 246 243 240 238 234 228 221 214 207 200 189 179 173 173 177 182 182 180 186 190 189 187 184 178 179 185 190 194 194 192
249 248 248 248 246 244 242 241 241 242 243 245 247 248 250 251 252 253 255 258 260 261 262 263 262 262 263 261 261 261 260 257 253 248 244 239 233 228 222 214 205 197 190 182 174 172 174 173 176 180 179 180 182 184 190 191 187 184 187 190 195 199 200
250 249 248 247 246 244 243 243 244 246 248 249 251 252 254 255 255 256 258 260 263 264 264 265 266 266 265 263 261 261 259 258 254 249 245 240 230 220 213 206 199 191 183 177 172 169 170 170 175 180 177 178 185 189 191 192 190 189 190 191 195 200 206
250 249 248 247 245 244 243 245 247 250 251 251 253 255 256 257 257 260 262 263 265 267 267 268 269 267 266 264 262 259 256 255 252 248 246 243 234 222 211 201 195 191 186 181 176 174 173 174 182 187 186 188 191 192 191 190 189 188 187 186 188 199 209
251 249 248 246 245 244 244 246 249 251 251 252 253 255 257 258 259 261 263 266 267 268 268 269 269 268 266 266 264 261 257 253 249 245 242 240 237 229 219 210 201 195 191 187 184 183 184 185 189 193 194 193 190 189 192 191 190 187 183 182 185 195 208
253 250 249 247 246 245 246 248 250 251 251 252 253 256 259 260 262 263 264 265 266 265 266 267 269 270 269 269 267 264 259 253 248 243 238 235 232 227 222 219 214 207 201 196 192 190 192 196 195 192 193 193 191 191 192 191 190 189 188 190 194 196 202
256 253 251 249 248 249 249 249 250 252 253 255 256 259 262 263 263 262 262 263 263 264 265 266 268 270 271 271 270 266 260 254 247 241 233 227 224 221 217 217 218 217 215 210 203 198 200 203 199 195 197 199 195 190 187 186 189 193 193 195 198 200 203
260 257 255 254 253 254 253 252 253 255 257 260 262 262 263 262 261 260 260 261 262 264 266 267 266 266 268 270 269 265 260 252 243 233 223 216 213 212 212 211 213 215 217 217 214 211 213 213 209 208 210 206 199 194 192 190 191 193 193 192 193 197 203
269 265 263 261 260 258 258 257 259 261 262 263 263 263 262 261 260 260 261 262 263 264 264 265 264 263 264 265 265 263 257 247 236 224 213 206 202 202 203 204 207 210 213 216 217 218 220 220 218 219 218 210 204 201 199 197 194 191 187 183 180 181 188
283 278 274 272 269 266 265 264 265 265 265 265 264 262 261 261 260 261 263 264 264 264 262 262 262 261 260 261 260 259 253 240 228 217 207 200 197 196 197 197 200 205 208 210 214 217 221 223 223 224 224 218 210 203 199 193 187 184 180 174 167 166 174
290 288 285 282 279 276 274 273 271 269 267 267 265 263 260 259 259 261 264 266 266 266 265 263 262 259 257 257 256 255 249 234 220 211 205 198 192 191 193 195 199 203 206 210 214 217 220 224 226 225 224 219 210 203 198 187 177 177 177 171 163 161 172
296 293 292 290 288 286 283 281 278 274 271 269 267 264 260 257 259 260 262 264 266 268 268 265 262 259 256 255 254 252 246 230 215 207 203 198 192 189 191 195 200 203 205 207 210 210 211 213 214 212 210 207 203 201 198 192 184 181 177 172 170 166 165
306 300 298 296 295 294 291 288 285 281 277 275 271 266 260 255 255 256 257 260 261 264 266 264 262 260 256 254 252 249 243 229 214 207 205 201 195 192 193 196 200 200 198 196 193 191 189 185 184 188 189 190 193 193 194 196 194 188 182 179 177 168 156
313 311 309 306 304 303 300 297 295 290 285 281 275 269 261 254 252 253 254 256 256 258 261 259 259 260 256 252 248 244 240 228 215 209 208 207 203 201 201 198 195 191 189 186 180 176 174 171 170 174 177 179 182 184 187 193 195 191 187 185 181 176 171
313 312 313 313 312 311 310 309 308 304 298 291 284 276 267 255 253 255 255 253 253 254 256 257 257 259 257 252 246 240 235 226 215 210 211 212 212 213 210 200 190 184 182 179 174 168 166 165 165 168 171 173 176 179 182 185 187 186 187 186 183 181 180
317 315 317 318 315 312 313 317 321 320 315 308 297 289 279 265 259 260 257 253 251 252 255 257 258 260 260 254 247 238 231 222 214 210 211 213 214 215 210 200 189 181 177 173 169 164 161 162 163 165 167 170 173 175 177 179 179 181 183 185 186 186 187
335 333 332 331 327 322 319 321 326 329 327 324 315 303 292 278 269 264 260 256 254 254 258 260 260 263 263 256 246 236 227 220 215 211 210 211 211 210 205 195 186 179 175 171 167 163 160 161 164 165 166 170 173 176 178 178 178 181 183 185 186 190 194
345 343 339 337 335 333 328 324 326 330 331 331 328 321 311 297 281 269 263 260 257 257 258 260 260 262 263 256 247 237 226 218 215 213 209 208 208 205 197 190 183 178 174 169 165 163 162 164 167 169 170 174 177 179 181 182 181 182 186 188 188 190 191
344 340 337 335 332 331 330 325 324 329 334 336 336 334 331 321 304 282 269 263 260 257 255 256 259 262 262 255 246 235 222 213 211 210 208 206 205 198 191 187 182 177 173 169 167 168 166 166 171 174 176 179 182 183 185 187 186 186 190 194 195 197 199
347 343 337 332 330 330 332 329 326 329 335 339 341 340 337 332 324 308 285 270 262 256 251 251 254 259 258 250 238 225 213 205 204 205 204 202 198 192 188 185 180 177 175 173 171 170 168 168 173 177 179 182 184 185 187 190 191 189 192 197 200 201 206
349 346 343 341 340 339 339 336 333 334 339 342 341 338 333 329 325 318 305 284 264 251 246 247 249 252 250 238 222 212 205 200 197 195 192 190 189 188 187 186 183 182 181 177 172 168 168 170 173 174 175 179 183 184 185 190 193 192 192 196 200 203 208
347 347 349 348 345 341 340 340 339 342 341 338 335 333 331 329 324 315 307 291 265 247 241 241 238 230 219 205 195 191 189 188 188 187 184 183 182 184 185 185 183 183 181 177 172 169 169 171 173 172 174 177 181 183 186 189 192 194 194 193 196 200 206
353 353 351 348 344 342 341 339 336 334 332 330 330 330 329 328 323 314 305 290 267 247 234 224 211 197 187 183 180 176 175 176 177 179 180 181 181 182 183 183 182 180 178 177 176 174 173 173 173 174 177 179 180 185 190 192 192 193 193 192 194 199 201
12 4 357 352 344 340 337 330 324 323 323 323 325 328 329 326 321 316 307 287 264 242 222 206 194 186 183 181 178 175 173 175 177 178 179 181 184 186 186 185 185 183 181 180 179 178 178 177 177 177 181 183 182 185 190 193 193 194 195 194 196 199 200
17 10 6 2 352 343 338 330 324 321 319 319 319 323 332 334 326 323 316 289 258 233 214 201 191 187 187 186 185 183 183 184 185 185 184 183 185 189 189 187 186 185 183 181 179 179 181 182 182 182 184 185 184 184 188 192 193 195 199 202 203 205 205
11 7 5 7 5 359 351 344 341 335 329 326 324 324 337 342 334 337 332 292 251 225 211 204 197 193 192 192 193 194 194 193 193 191 189 187 186 189 191 189 187 186 184 182 181 182 184 186 186 186 185 185 184 184 186 191 194 197 201 207 211 214 216
1 360 360 4 9 10 5 357 353 349 341 337 332 331 348 357 352 353 347 286 242 226 216 210 206 204 203 202 203 203 202 201 199 196 194 191 190 190 191 189 188 187 187 186 186 186 187 186 186 185 183 183 185 187 190 195 200 202 203 206 212 216 217
356 354 354 359 7 13 17 15 10 3 356 353 355 360 4 4 359 1 358 234 229 277 264 227 220 217 215 215 215 212 208 206 203 200 197 195 193 191 189 188 189 189 188 188 188 188 187 186 185 185 185 186 188 191 195 199 203 205 205 207 211 215 217
353 352 353 356 2 9 18 20 18 17 18 20 24 21 13 7 7 12 11 233 235 301 302 258 238 232 229 228 226 221 216 211 207 203 200 196 192 190 189 189 189 189 190 190 191 191 192 192 192 194 196 196 195 195 197 200 203 206 209 211 213 215 216
352 354 355 355 356 2 9 11 12 20 32 40 36 29 23 20 19 15 2 339 324 324 314 278 243 236 237 236 230 225 221 217 212 208 202 196 193 193 193 193 193 192 192 193 194 196 198 198 200 203 203 201 201 202 204 206 207 209 212 215 215 216 217